Cloud_Cover
0 3 0 0 0 0 2 5 5 0 0 0 0 0 0 0 5 5 4 5 4 5 5 5 3 5 4 5 2 0 0 0 0 0 5 1 5 5 5 0 3 5 4
0 0 0 0 0 0 0 1 0 1 0 0 0 0 0 5 5 5 5 7 60 40 5 5 5 1 4 0 0 0 0 0 1 5 5 5 5 5 5 4 4 5 5
1 5 2 0 0 0 0 5 0 0 0 0 0 3 5 5 5 12 96 76 97 11 5 5 2 0 0 0 0 0 0 0 5 5 5 5 21 5 5 5 5 5 5
0 0 5 5 0 5 4 0 0 0 0 0 0 5 39 28 10 25 47 56 10 5 4 3 0 0 0 0 0 0 0 3 5 5 5 7 85 7 5 6 12 25 22
5 3 5 5 5 5 0 0 0 0 0 0 4 5 1 0 1 5 5 5 2 0 0 0 0 0 0 0 0 0 0 0 5 5 6 6 67 12 46 77 86 100 100
5 4 5 5 5 5 5 0 0 0 0 0 0 0 0 0 0 0 0 0 0 0 0 0 0 0 0 0 0 0 0 3 5 5 48 53 62 7 100 100 100 100 66
4 1 5 4 0 5 3 1 0 2 4 0 0 0 0 0 0 0 0 0 0 0 0 0 0 0 0 0 0 1 5 5 5 6 70 93 49 76 92 100 99 97 20
5 5 0 0 4 5 5 5 5 5 0 3 0 0 0 0 0 0 0 0 0 0 0 0 0 0 0 0 3 5 5 5 5 83 100 89 90 78 77 93 100 28 7
5 5 5 5 5 5 5 5 5 1 4 5 4 0 0 0 0 0 0 0 0 0 0 0 0 0 0 0 4 5 5 5 49 100 100 100 100 92 80 42 100 69 49
90 43 61 5 5 5 8 12 5 1 5 5 5 0 3 5 0 0 0 0 0 0 0 0 0 0 0 0 5 5 5 5 17 92 100 100 100 58 98 72 100 100 82
98 79 48 5 28 45 48 75 5 5 5 5 5 5 5 5 4 0 5 4 1 2 0 0 0 2 4 5 5 5 5 5 34 65 100 100 100 82 5 9 90 100 83
100 100 11 5 47 100 100 100 93 20 14 5 5 5 5 5 5 5 5 5 4 5 3 0 17 6 5 5 5 5 5 7 5 28 93 100 100 48 5 5 78 46 82
100 10 5 5 5 94 100 100 100 100 98 9 6 56 62 5 5 5 5 5 5 5 2 31 18 5 5 5 5 5 5 5 5 14 96 100 100 94 6 13 93 60 100
100 38 5 5 5 15 100 100 100 100 100 100 55 79 100 19 8 5 10 66 5 5 5 5 5 5 10 5 5 5 5 5 5 19 100 100 100 82 12 31 100 96 100
22 6 6 5 5 44 100 100 100 100 100 100 100 100 100 41 97 19 5 5 5 19 5 5 26 60 66 6 5 5 5 5 5 20 88 98 100 91 14 34 97 100 100
10 28 28 51 19 18 100 100 100 100 100 100 100 100 100 100 100 86 99 89 87 100 75 98 99 100 100 42 5 5 23 5 5 9 76 100 100 83 40 76 100 96 100
100 98 98 100 100 93 66 100 100 100 100 100 100 100 100 100 100 100 100 100 100 100 100 100 72 100 100 71 17 42 59 6 18 6 96 100 100 100 83 57 70 69 100
100 100 100 100 100 100 100 100 99 100 100 100 100 100 100 100 100 100 100 100 100 100 100 100 100 96 67 22 30 19 51 52 8 14 52 100 100 100 92 81 100 100 99
100 100 100 100 100 100 100 100 100 100 100 100 100 100 100 100 100 100 100 100 100 100 100 100 100 92 61 80 95 98 100 82 28 57 61 100 100 100 100 96 100 96 95
100 100 100 100 100 100 100 100 100 100 100 100 100 100 100 100 100 100 100 100 100 100 100 100 100 100 99 100 100 100 100 99 69 19 12 100 100 100 100 100 97 100 100
100 100 100 100 100 100 100 100 100 100 92 90 100 96 98 100 100 100 100 100 100 100 100 100 100 100 100 100 100 100 100 100 59 8 38 100 100 100 100 100 100 100 100
100 100 100 100 100 100 100 100 100 100 100 100 100 100 100 100 100 100 100 100 100 100 100 100 100 100 100 100 100 100 100 93 81 64 77 74 100 100 100 100 100 100 100
100 100 100 100 100 100 100 100 100 100 100 100 100 100 100 100 100 100 100 100 100 100 100 100 100 100 100 100 100 100 100 100 100 97 60 68 100 100 100 100 100 100 100
100 100 100 100 100 100 100 100 100 100 100 100 100 100 100 100 100 100 100 100 100 100 100 100 100 100 100 100 100 100 100 100 100 100 88 17 99 100 100 100 100 100 100
100 100 100 100 100 100 100 100 100 100 100 100 100 100 100 100 100 100 100 100 100 100 100 100 100 100 100 100 100 100 100 100 100 100 68 57 100 86 81 100 100 100 100
100 100 100 100 100 100 100 100 100 100 100 100 100 100 100 99 100 99 76 100 100 100 100 100 100 100 100 100 100 100 100 100 100 100 90 40 100 100 26 99 100 100 100